When you browse on this site, cookies collect data to enhance your experience and personalize the content and advertising you see.
Visit our Privacy Policy to learn more. By continuing to use the site, you agree to this use of cookies and data.
  • En España
  • Lista de países
  • Para 7 días
  • Temperatura del agua
  • El tiempo en el mapa
  • Informadores
  • user-avatar
    Iniciar sesión

    Tiempo cada hora Svobodnyy

    Hoy, 19 Agosto, Lunes

    Tiempo Temperatura Precipitaciones Viento Presión Humedad
    00:00 +14°C° 0 mm 3 mps 739 mmHg 97%
    01:00 +14°C° 0 mm 3 mps 739 mmHg 97%
    02:00 +13°C° 0 mm 3 mps 739 mmHg 96%
    03:00 +13°C° 0 mm 3 mps 740 mmHg 96%
    04:00 +13°C° 0 mm 3 mps 740 mmHg 96%
    05:00 +13°C° 0 mm 3 mps 740 mmHg 97%
    06:00 +16°C° 0 mm 3 mps 741 mmHg 92%
    07:00 +17°C° 0 mm 3 mps 741 mmHg 87%
    08:00 +18°C° 0 mm 3 mps 741 mmHg 82%
    09:00 +20°C° 0 mm 3 mps 741 mmHg 77%
    10:00 +21°C° 0 mm 4 mps 742 mmHg 72%
    11:00 +22°C° 0 mm 4 mps 742 mmHg 67%
    12:00 +24°C° 0 mm 3 mps 742 mmHg 65%
    13:00 +24°C° 0 mm 3 mps 742 mmHg 62%
    14:00 +25°C° 0 mm 3 mps 743 mmHg 60%
    15:00 +25°C° 0 mm 2 mps 743 mmHg 63%
    16:00 +25°C° 0 mm 2 mps 743 mmHg 67%
    17:00 +25°C° 0 mm 1 mps 743 mmHg 70%
    18:00 +23°C° 0 mm 1 mps 743 mmHg 74%
    19:00 +21°C° 0 mm 1 mps 743 mmHg 79%
    20:00 +20°C° 0 mm 1 mps 744 mmHg 83%
    21:00 +19°C° 0 mm 1 mps 744 mmHg 85%
    22:00 +18°C° 0 mm 1 mps 744 mmHg 86%
    23:00 +18°C° 0 mm 1 mps 744 mmHg 88%

    Mañana, 20 Agosto, Martes

    Tiempo Temperatura Precipitaciones Viento Presión Humedad
    00:00 +16°C° 0 mm 1 mps 744 mmHg 88%
    01:00 +16°C° 0 mm 1 mps 744 mmHg 88%
    02:00 +15°C° 0 mm 0 mps 744 mmHg 88%
    03:00 +15°C° 0 mm 0 mps 744 mmHg 87%
    04:00 +15°C° 0 mm 0 mps 744 mmHg 87%
    05:00 +15°C° 0 mm 0 mps 745 mmHg 87%
    06:00 +16°C° 0 mm 0 mps 745 mmHg 81%
    07:00 +18°C° 0 mm 0 mps 745 mmHg 76%
    08:00 +20°C° 0 mm 0 mps 745 mmHg 70%
    09:00 +23°C° 0 mm 1 mps 745 mmHg 66%
    10:00 +24°C° 0 mm 1 mps 745 mmHg 61%
    11:00 +25°C° 0 mm 1 mps 745 mmHg 56%
    12:00 +26°C° 0 mm 1 mps 745 mmHg 55%
    13:00 +26°C° 0 mm 1 mps 745 mmHg 53%
    14:00 +27°C° 0 mm 1 mps 745 mmHg 51%
    15:00 +27°C° 0 mm 1 mps 745 mmHg 55%
    16:00 +26°C° 0 mm 1 mps 745 mmHg 59%
    17:00 +26°C° 0 mm 1 mps 745 mmHg 63%
    18:00 +24°C° 0 mm 1 mps 745 mmHg 67%
    19:00 +23°C° 0 mm 1 mps 745 mmHg 70%
    20:00 +19°C° 0 mm 0 mps 746 mmHg 74%
    21:00 +18°C° 0 mm 0 mps 746 mmHg 75%
    22:00 +18°C° 0 mm 0 mps 746 mmHg 76%
    23:00 +20°C° 0 mm 1 mps 745 mmHg 77%

    Pasado mañana, 21 Agosto, Miércoles

    Tiempo Temperatura Precipitaciones Viento Presión Humedad
    00:00 +17°C° 0 mm 0 mps 746 mmHg 78%
    01:00 +17°C° 0 mm 0 mps 746 mmHg 79%
    02:00 +17°C° 0 mm 0 mps 746 mmHg 80%
    03:00 +17°C° 0 mm 0 mps 746 mmHg 80%
    04:00 +17°C° 0 mm 0 mps 746 mmHg 81%
    05:00 +16°C° 0 mm 0 mps 746 mmHg 82%
    06:00 +18°C° 0 mm 0 mps 746 mmHg 77%
    07:00 +20°C° 0 mm 0 mps 746 mmHg 72%
    08:00 +22°C° 0 mm 0 mps 747 mmHg 68%
    09:00 +23°C° 0 mm 0 mps 747 mmHg 64%
    10:00 +24°C° 0 mm 0 mps 746 mmHg 61%
    11:00 +25°C° 0 mm 0 mps 746 mmHg 58%
    12:00 +28°C° 0 mm 1 mps 746 mmHg 56%
    13:00 +28°C° 0 mm 1 mps 746 mmHg 55%
    14:00 +28°C° 0 mm 1 mps 746 mmHg 53%
    15:00 +28°C° 0 mm 1 mps 746 mmHg 57%
    16:00 +28°C° 0 mm 1 mps 745 mmHg 61%
    17:00 +28°C° 0 mm 1 mps 745 mmHg 64%
    18:00 +26°C° 0 mm 1 mps 745 mmHg 69%
    19:00 +24°C° 0 mm 1 mps 745 mmHg 73%
    20:00 +22°C° 0 mm 1 mps 745 mmHg 77%
    21:00 +22°C° 0 mm 1 mps 745 mmHg 79%
    22:00 +21°C° 0 mm 1 mps 745 mmHg 80%
    23:00 +21°C° 0 mm 1 mps 745 mmHg 82%

    22 Agosto, Jueves

    Tiempo Temperatura Precipitaciones Viento Presión Humedad
    00:00 +20°C° 0 mm 1 mps 745 mmHg 83%
    01:00 +20°C° 0 mm 1 mps 744 mmHg 84%
    02:00 +19°C° 0 mm 1 mps 744 mmHg 85%
    03:00 +19°C° 0 mm 1 mps 744 mmHg 86%
    04:00 +19°C° 0 mm 1 mps 744 mmHg 86%
    05:00 +19°C° 0 mm 1 mps 744 mmHg 86%
    06:00 +21°C° 0 mm 1 mps 744 mmHg 81%
    07:00 +22°C° 0 mm 1 mps 744 mmHg 76%
    08:00 +24°C° 0 mm 1 mps 744 mmHg 71%
    09:00 +25°C° 0 mm 1 mps 744 mmHg 67%
    10:00 +26°C° 0 mm 1 mps 744 mmHg 63%
    11:00 +27°C° 0 mm 1 mps 744 mmHg 59%
    12:00 +27°C° 0 mm 1 mps 743 mmHg 57%
    13:00 +28°C° 0 mm 1 mps 743 mmHg 55%
    14:00 +28°C° 0 mm 1 mps 743 mmHg 53%
    15:00 +28°C° 0 mm 1 mps 743 mmHg 56%
    16:00 +27°C° 0 mm 1 mps 743 mmHg 59%
    17:00 +27°C° 0 mm 1 mps 742 mmHg 62%
    18:00 +25°C° 0 mm 1 mps 743 mmHg 66%
    19:00 +24°C° 0 mm 1 mps 743 mmHg 69%
    20:00 +22°C° 0 mm 1 mps 743 mmHg 72%
    21:00 +21°C° 0 mm 1 mps 743 mmHg 76%
    22:00 +20°C° 0 mm 2 mps 743 mmHg 80%
    23:00 +19°C° 0 mm 2 mps 743 mmHg 84%

    23 Agosto, Viernes

    Tiempo Temperatura Precipitaciones Viento Presión Humedad
    00:00 +19°C° 0 mm 2 mps 743 mmHg 88%
    01:00 +19°C° 0 mm 2 mps 743 mmHg 91%
    02:00 +18°C° 0 mm 2 mps 743 mmHg 94%
    03:00 +18°C° 0.3 mm 3 mps 743 mmHg 95%
    04:00 +18°C° 0.3 mm 3 mps 743 mmHg 96%
    05:00 +18°C° 0.3 mm 3 mps 743 mmHg 97%
    06:00 +18°C° 0.5 mm 3 mps 743 mmHg 96%
    07:00 +18°C° 0.5 mm 3 mps 744 mmHg 95%
    08:00 +18°C° 0.5 mm 3 mps 744 mmHg 94%
    09:00 +18°C° 1.4 mm 3 mps 744 mmHg 94%
    10:00 +18°C° 1.4 mm 3 mps 744 mmHg 94%
    11:00 +18°C° 1.4 mm 3 mps 744 mmHg 93%
    12:00 +18°C° 2.8 mm 3 mps 744 mmHg 94%
    13:00 +17°C° 2.8 mm 4 mps 744 mmHg 95%
    14:00 +17°C° 2.8 mm 4 mps 744 mmHg 96%
    15:00 +17°C° 0.6 mm 4 mps 744 mmHg 94%
    16:00 +17°C° 0.6 mm 4 mps 744 mmHg 93%
    17:00 +17°C° 0.6 mm 4 mps 744 mmHg 92%
    18:00 +17°C° 0 mm 3 mps 745 mmHg 93%
    19:00 +16°C° 0 mm 3 mps 745 mmHg 93%
    20:00 +16°C° 0 mm 2 mps 745 mmHg 94%
    21:00 +15°C° 0 mm 2 mps 745 mmHg 93%
    22:00 +14°C° 0 mm 3 mps 745 mmHg 92%
    23:00 +13°C° 0 mm 3 mps 746 mmHg 91%

    24 Agosto, Sábado

    Tiempo Temperatura Precipitaciones Viento Presión Humedad
    00:00 +13°C° 0 mm 3 mps 746 mmHg 92%
    01:00 +13°C° 0 mm 3 mps 746 mmHg 92%
    02:00 +12°C° 0 mm 3 mps 746 mmHg 93%
    03:00 +12°C° 0 mm 3 mps 746 mmHg 92%
    04:00 +12°C° 0 mm 3 mps 746 mmHg 91%
    05:00 +11°C° 0 mm 3 mps 747 mmHg 90%
    06:00 +13°C° 0 mm 3 mps 747 mmHg 85%
    07:00 +14°C° 0 mm 3 mps 747 mmHg 81%
    08:00 +17°C° 0 mm 3 mps 747 mmHg 77%
    09:00 +18°C° 0 mm 3 mps 747 mmHg 72%
    10:00 +19°C° 0 mm 3 mps 747 mmHg 67%
    11:00 +21°C° 0 mm 3 mps 748 mmHg 61%
    12:00 +21°C° 0 mm 3 mps 748 mmHg 60%
    13:00 +21°C° 0 mm 3 mps 748 mmHg 59%
    14:00 +22°C° 0 mm 3 mps 747 mmHg 58%
    15:00 +21°C° 0 mm 3 mps 747 mmHg 62%
    16:00 +21°C° 0 mm 2 mps 747 mmHg 66%
    17:00 +21°C° 0 mm 2 mps 747 mmHg 70%
    18:00 +19°C° 0 mm 2 mps 747 mmHg 72%
    19:00 +17°C° 0 mm 2 mps 748 mmHg 75%
    20:00 +16°C° 0 mm 2 mps 748 mmHg 77%
    21:00 +15°C° 0 mm 1 mps 748 mmHg 79%
    22:00 +15°C° 0 mm 1 mps 748 mmHg 80%
    23:00 +14°C° 0 mm 1 mps 748 mmHg 81%
    Mostrar más